Timeline UpdatesTrip UpdatesNews PostsPvt PostsTravel TipsAdmin PostsConv PostsFollowed PostsChat RequestsBlog PostsPNR Posts

Disclaimer
Search
 
 
Sun Sep 21, 2014 05:34:24 ISTHomeTrainsΣChainsAtlasPNRForumGalleryNewsFAQTripsMembersLoginFeedback
No Recent News for this Train
Other Trains in the News **new
Latest...
http://indiarailinfo.com/blog/post/1101915.
Sun May 18, 2014 (08:29PM)
⇐ Return Journey: Train# 14660

14659/Malani Express

Time-Table HAS CHANGED.
Sep 03 (11:21AM)
Change Departure Station:
Change Arrival Station:
Post a Train Travel TipPost a Train Travel Tip **new
Post a Comment/Question/Picture/VideoPost a Comment/Question/Picture/Video
Pantry/Catering
✕ NO Pantry Car
✓ Catering Avbl
Doon's catering...provides veg byriani @ Rs. 60 and veg thali...
Read more...
@ Rs. 120. Also snacks, cold drinks, chips, water are available with them in AC coaches mainly.
Loco/Rake Reversals
JU/Jodhpur Junction (5); POK/Pokaran (1);
RSA - Rake Sharing
14646/14645/14659/14660;
Rake/Coach Composition
Rake1: Loco-slr-gen-s8-s7-s6-b3-a2-gen-slr-slr-gen-s5-s4-b2-b1-a1-ha1-s3-s2-s1-gen-gen-slr; ; Rake2: Loco-SLR-A2,B1,S8-S7-S6-Gen-Gen-SLR-SLR-S5-S4-S3-S2-S1-A1-B2-B3-HA1-Gen-Gen-Gen-SLR;first 9 coaches are slip coaches to barmer.
Loco
BGKT WDP 4D (Upto JU), RTM WDM 3A (JU-JSM)
News    PNR    Forum    Time-Table    Availability    Fare Chart    Map    Arr/Dep History    Trips    Gallery    ΣChains    X/O    Timeline    
Travel Time: 1h 31m    0 halts    Distance: 62 km    Avg Speed: 40 km/hr
Type: Mail/Express
Zone: NR/Northern
Departs @ 09:44
Platform# 1
SMTWTFS
Shri Bhadriya Lathi/SBLT 
Arrives @ 11:15
Platform# 1
SMTWTFS
Jaisalmer/JSM 

0 halts. 2 intermediate Stations between Shri Bhadriya Lathi and Jaisalmer

Hide intermediate Stations  Show Old Time-Table

#CodeStation NameX/OArrivesAvgDepartsAvgHaltPFDay#KmSpeedElevZoneAddress
1DLIOld Delhi Junction (16)  -17:30 17:35-91-856.720219mNRNear Chandni Chowk Metro Station, Delhi NCT
1.1DKZDelhi KishanGanj (2)  17:43-17:43-  1-853.8 20220mNRSarai Rohilla, Delhi NCT
2DEEDelhi Sarai Rohilla (5)  17:48-17:50-2m11-852.339226mNRNew Rohtak road, Delhi NCT
2.1DBSIDayabasti (2)  17:52-17:52-  1-851.0 39225mNRZakhira, Delhi NCT
2.2PTNRPatel Nagar (7)  17:55-17:55-  1-849.2 39222mNRPatel Nagar, Delhi NCT
2.3KRTNKirtinagar (2)  17:56-17:56-  1-848.4 39220mNRKirti Nagar, Delhi NCT
3DECDelhi Cantt. (5)  18:05-18:07-2m11-842.632217mNRDelhi, Delhi NCT
3.1NSNNasirpur Halt (1)  18:10-18:10-  1-841.2 32220mNRnasirpur, Uttar Pradesh
4PMPalam (3)  18:14-18:16-2m21-838.957222mNRNew Delhi - 110010, Delhi NCT
4.1SMDPShahabad Mohammadpur (2)  18:20-18:20-  1-835.3 57218mNRDwarka, Delhi NCT
4.2BWSNBijwasan (3)X  18:23-18:23-  1-832.1 57222mNRBijwasan, Delhi NCT
4.3PLVRPalam Vihar Halt  18:26-18:26-  1-829.2 57218mNRGurgaon, Haryana
5GGNGurgaon (3)X  18:30-18:32-2m--1-825.566217mNRGurgaon, Haryana
5.1BDXTBasai Dhankot (1)  18:36-18:36-  1-821.5 66213mNRGurgaon, Haryana
6GHHGarhi Harsaru (3)  18:41-18:43-2m--1-815.679220mNRGurgaon, Haryana
6.1PTPatli (3)  18:49-18:49-  1-807.4 79226mNRGurgaon, Haryana
6.2TNJRTaj Nagar (2)  18:52-18:52-  1-804.4 79231mNRGurgaon, Haryana
6.3JSKAJataula Samphka (1)  18:54-18:54-  1-801.1 79226mNRHailley Mandi, Haryana
7PTRDPataudi Road  18:58-19:00-2m--1-795.967227mNRHailley Mandi, Haryana
7.1IHPInchhapuri (1)X  19:04-19:04-  1-791.0 67231mNRGurgaon, Haryana
8KIPKhalilpur  19:10-19:12-2m--1-784.720235mNRState Highway 26, Haryana
8.1KWMDKumbhawas Mundhalia Dabri (1)  19:23-19:23-  1-780.8 20237mNRKumbhawas, Haryana
9RERewari Junction (8)  19:43-19:45-2m11-774.265245mNWRRewari, Haryana
9.1AMRIAnaj Mandi (2)X  19:47-19:47-  1-772.4 65248mNWRRampura, Haryana
9.2KNGTKarnawasX  19:53-19:53-  1-765.8 65257mNWRKarnawas, Haryana
10BWLBawalX  19:59-20:01-2m--1-758.987266mNWRBawal, Haryana
10.1MJNLMajri Nangal  20:05-20:05-  1-752.5 87273mNWRState Highway 52, Rajasthan
10.2AIAAjaraka  20:10-20:10-  1-746.0 87280mNWRAjaraka, Rajasthan
10.3KNARKhanpur AhirX  20:14-20:14-  1-739.8 87284mNWRMDR 61, Rajasthan
11HSIHarsauli  20:18-20:20-2m--1-734.352287mNWRHarsoli, Rajasthan
12KRHKhairthal (2)  20:29-20:31-2m21-726.678305mNWRKhairthal, Rajasthan
12.1GALGhatla  20:37-20:37-  1-719.4 78308mNWRState Highway 14, Rajasthan
12.2PSLParisalX  20:42-20:42-  1-713.0 78289mNWRKhairthal, Rajasthan
13AWRAlwar Junction (2)  20:52-20:55-3m21-699.488267mNWRAlwar, Rajasthan
13.1MWWMahwa (1)  21:01-21:01-  1-690.8 88264mNWRAlwar, Rajasthan
14MKHMalakhera (1)  21:08-21:10-2m11-680.273265mNWRMala Khera, Rajasthan
14.1DGWDhigawara (1)X  21:18-21:18-  1-670.1 73278mNWRBaswa, Rajasthan
15RHGRajgarh (2)  21:24-21:26-2m--1-663.245303mNWRRajgarh, Rajasthan
15.1SRRGSurergoth (1)  21:34-21:34-  1-657.6 45308mNWRState Highway 25, Rajasthan
16BUBaswa (2)X  21:42-21:44-2m11-651.358291mNWRAlwar, Rajasthan
16.1GLNAGulana (1)  21:50-21:50-  1-645.7 58279mNWRState Highway 25, Rajasthan
17BKIBandikui Junction (6)  21:57-21:59-2m--1-638.886283mNWRBandikui, Rajasthan
17.1ARNAArnia (2)  22:03-22:03-  1-632.7 86288mNWRBandikui, Rajasthan
17.2KVGMKolvagram (2)  22:07-22:07-  1-627.3 86294mNWRBandikui, Rajasthan
17.3BAKBhan Kari (2)  22:12-22:12-  1-620.7 86301mNWRDausa, Rajasthan
18DODausa (2)  22:19-22:21-2m11-610.070333mNWRDausa, Rajasthan
18.1BNDNBhandana (2)X  22:27-22:27-  1-602.7 70329mNWRBanskho, Rajasthan
18.2JWJatwara (2)  22:31-22:31-  1-597.9 70329mNWRDausa, Rajasthan
18.3BSKOBanskho (2)  22:38-22:38-  1-590.5 70362mNWRJaipur, Rajasthan
18.4JHIRJhir (2)X  22:40-22:40-  1-587.9 70377mNWRKanauta, Rajasthan
18.5BAIBassi (3)  22:46-22:46-  1-581.0 70352mNWRJaipur, Rajasthan
18.6KUTKanauta (2)  22:54-22:54-  1-571.8 70350mNWRJaipur, Rajasthan
18.7KWPKhatipura (2)  22:59-22:59-  1-565.3 70364mNWRGandhinagar, Rajasthan
18.8GTJTGetor Jagatpura (2)  23:04-23:04-  1-559.4 70389mNWRJaipur, Rajasthan
19GADJJaipur Gandhinagar (2)X  23:09-23:11-2m--1-553.914426mNWRJaipur, Rajasthan
20JPJaipur Junction (7)X  23:35-23:45-10m41-548.585434mNWRJaipur, Rajasthan
20.1KKUKanakpura  23:51-23:51-  1-539.6 85429mNWRJaipur, Rajasthan
20.2BDYKBindayakaX  23:55-23:55-  1-534.5 85411mNWRJaipur, Rajasthan
20.3DNKDhanakya  23:58-23:58-  1-529.9 85418mNWRJaipur, Rajasthan
20.4SHNXSheo Singh Pura  00:01-00:01-  2-526.1 85411mNWRJaipur, Rajasthan
20.5BOBSBobasX  00:06-00:06-  2-519.2 85396mNWRJaipur, Rajasthan
21JOBAsalpur Jobner  00:11-00:13-2m--2-511.824379mNWRJaipur, Rajasthan
21.1DHNDDhinda  00:27-00:27-  2-506.1 24386mNWRMDR 59, Rajasthan
21.2HDAHirnodaX  00:37-00:37-  2-502.1 24400mNWRJaipur, Rajasthan
22FLPhulera Junction (5)  00:58-01:00-2m22-493.480386mNWRPhulera, Rajasthan
22.1SBRSambhar Lake  01:05-01:05-  2-486.2 80368mNWRSambhar, Rajasthan
22.2GAGudha (1)  01:11-01:11-  2-478.6 80365mNWRPhulera, Rajasthan
22.3GVMRGovindi Marwar  01:19-01:19-  2-467.9 80373mNWRSambhar Lake, Rajasthan
23NACNawa City  01:26-01:28-2m--2-458.669390mNWRNawa, Rajasthan
23.1NYKNaya Kharadia  01:34-01:34-  2-452.0 69375mNWRMakrana, Rajasthan
23.2THMRThathana Mithri  01:37-01:37-  2-447.8 69388mNWRNawa City, Rajasthan
23.3KMNCKuchaman City  01:42-01:42-  2-443.0 69404mNWRPalari, Rajasthan
24MKNMakrana Junction (2)X  01:54-01:56-2m--2-428.870423mNWRMakrana, Rajasthan
24.1BOWBorawar  02:00-02:00-  2-423.7 70403mNWRBesrol, Rajasthan
24.2BSRLBesroli  02:11-02:11-  2-411.8 70378mNWRNagaur, Rajasthan
24.3GCHGachhipura  02:20-02:20-  2-400.5 70362mNWRNagaur, Rajasthan
25DNADegana Junction (4)X  02:33-02:36-3m--2-385.445339mNWRDegana, Rajasthan
25.1JACNJalsu NanakX  02:46-02:46-  2-378.1 45331mNWRREN, Rajasthan
25.2JACJalsu  02:53-02:53-  2-372.5 45321mNWRNagaur, Rajasthan
25.3RENRen  03:12-03:12-  2-358.8 45307mNWRNagaur, Rajasthan
25.4KQWKheduli (1)X  03:14-03:14-  2-356.8 45307mNWRRen, Rajasthan
26MTDMerta Road Junction (4)X  03:35-03:40-5m--2-341.481322mNWRPhalodi, Rajasthan
26.1JOMJogi Magra (1)  03:48-03:48-  2-331.0 81335mNWRNagaur, Rajasthan
27GOTNGotan (3)  03:55-03:57-2m--2-321.292323mNWRGotan, Rajasthan
27.1KXGKharia Khangarh  04:02-04:02-  2-314.1 92310mNWRKharia Khangar, Rajasthan
27.2UMEDUmed  04:08-04:08-  2-303.8 92308mNWRJodhpur, Rajasthan
27.3SWFSathin Road  04:15-04:15-  2-293.5 92284mNWRUMED, Rajasthan
27.4PPRPipar Road Junction  04:21-04:21-  2-285.0 92272mNWRState Highway 58, Rajasthan
27.5KSWKheri Salwa  04:25-04:25-  2-278.5 92269mNWRJajiwal, Rajasthan
27.6AASAsranada  04:31-04:31-  2-269.4 92251mNWRState Highway 58, Rajasthan
27.7JWLJajiwal  04:37-04:37-  2-260.5 92228mNWRJodhpur, Rajasthan
27.8BNOBanarX  04:42-04:42-  2-252.3 92213mNWRBanar, Rajasthan
27.9JUCTJodhpur Cantt. (1)  04:46-04:46-  2-246.2 92220mNWRJodhpur, Rajasthan
28RKBRaikabagh Palace Junction (2) new halt!!  04:50-04:52-2m--2-240.411237mNWRJodhpur, Rajasthan
29JUJodhpur Junction (5)X05:05-05:30-25m--2-238.158241mNWRJodhpur, Rajasthan
29.1RKBRaikabagh Palace Junction (2)  05:32-05:32-  2-235.7 58237mNWRJodhpur, Rajasthan
29.2MMCMahamandir  05:35-05:35-  2-232.9 58249mNWRJodhpur, Rajasthan
29.3MDBMandor (1)X  05:40-05:40-  2-228.4 58244mNWRJodhpur, Rajasthan
29.4MLHManaklao  05:59-05:59-  2-210.5 58247mNWRState Highway 61, Rajasthan
30MMYMarwar Mathanya  06:04-06:06-2m--2-205.463252mNWRMathania, Rajasthan
31TIWTivari new halt!!06:16-06:17-1m--2-194.885273mNWRTinwari, Rajasthan
32OSNOsiyan  06:31 06:32-06:33 06:34-2m--2-173.680329mNWROsiyan, Rajasthan
32.1BKCBhikamkor  06:45-06:45-  2-158.4 80323mNWRJodhpur, Rajasthan
32.2SRKSamrau  06:52-06:52-  2-149.1 80320mNWRState Highway 61, Rajasthan
33MWTMarwar Lohwat  07:06 07:07-07:08 07:09-2m12-129.871289mNWRJodhpur, Rajasthan
33.1STSNShaitan Singh Nagar  07:22-07:22-  2-115.0 71263mNWRState Highway 61, Rajasthan
34PLCJPhalodi Junction  07:33-07:38-5m12-101.679232mNWRPhalodi, Rajasthan
34.1PLCPhalodi Junction  07:38-07:38-  2-101.4 79225mNWRPhalodi, Rajasthan
34.2MBTMarwar Birthi  07:46-07:46-  2-90.9 79248mNWRNational Highway 15, Rajasthan
34.3MKHRMarwar Khara  07:58-07:58-  2-75.3 79257mNWRJodhpur, Rajasthan
35RDRARamdevraX  08:14-08:16-2m12-54.122226mNWRRamdevra, Rajasthan
36POKPokaran (1)08:35 08:43-08:55 09:08-20 25m12-44.163244mNWRNational Highway 15, Rajasthan
37AQGAshapura Gomat  08:59 09:12-09:01 09:14-2m12-39.985245mNWRNational Highway 15, Rajasthan
37.1OCHOdhaniya Chacha  09:27-09:27-  2-21.6 85224mNWRNational Highway 15, Rajasthan
38SBLTShri Bhadriya Lathi (1)»  09:31 09:42-09:33 09:44-2m120.041194mNWRLathi, Rajasthan
38.1JCHJetha ChandanX  10:13-10:13-  220.0 41181mNWRChandan, Rajasthan
38.2THMThalyat Hamira  10:48-10:48-  243.3 41201mNWRHamira, Rajasthan
39JSMJaisalmer (3)•  11:15--1262.0-224mNWRJaisalmer, Rajasthan
Scroll to Top
Scroll to Bottom